| time (UTC) | temp F | wind direction | speed MPH | gust MPH | rain 1hr in | rain 24hr in | rain mn in | humidity % | barometer mb |
| 20260506230807 | 58 | 203 | 10.0 | 17.0 | 0.00 | 0.00 | 0.00 | 88 | 1007.2 |
| 20260506225806 | 59 | 214 | 7.0 | 13.0 | 0.00 | 0.00 | 0.00 | 89 | 1007.3 |
| 20260506223806 | 59 | 205 | 10.0 | 15.0 | 0.00 | 0.00 | 0.00 | 88 | 1007.3 |
| 20260506223306 | 58 | 204 | 8.0 | 16.0 | 0.00 | 0.00 | 0.00 | 89 | 1007.4 |
| 20260506221806 | 58 | 211 | 9.0 | 17.0 | 0.00 | 0.00 | 0.00 | 89 | 1007.4 |
| 20260506220805 | 58 | 205 | 9.0 | 18.0 | 0.00 | 0.00 | 0.00 | 90 | 1007.4 |
| 20260506220306 | 58 | 189 | 12.0 | 20.0 | 0.00 | 0.00 | 0.00 | 90 | 1007.3 |
| 20260506215806 | 57 | 198 | 12.0 | 20.0 | 0.00 | 0.00 | 0.00 | 90 | 1007.2 |
| 20260506214806 | 57 | 199 | 10.0 | 21.0 | 0.00 | 0.00 | 0.00 | 89 | 1007.1 |
| 20260506214306 | 58 | 194 | 9.0 | 16.0 | 0.00 | 0.00 | 0.00 | 89 | 1007.2 |
| 20260506213806 | 58 | 187 | 10.0 | 18.0 | 0.00 | 0.00 | 0.00 | 88 | 1007.1 |
| 20260506213305 | 58 | 198 | 13.0 | 20.0 | 0.00 | 0.00 | 0.00 | 88 | 1007.0 |
| 20260506212807 | 59 | 191 | 12.0 | 18.0 | 0.00 | 0.00 | 0.00 | 87 | 1007.1 |
| 20260506212307 | 59 | 202 | 12.0 | 22.0 | 0.00 | 0.00 | 0.00 | 87 | 1007.0 |
| 20260506211305 | 60 | 209 | 13.0 | 22.0 | 0.00 | 0.00 | 0.00 | 87 | 1007.1 |
| 20260506210305 | 59 | 195 | 13.0 | 22.0 | 0.00 | 0.00 | 0.00 | 87 | 1007.0 |
| 20260506205806 | 59 | 190 | 12.0 | 22.0 | 0.00 | 0.00 | 0.00 | 87 | 1006.9 |
| 20260506204806 | 59 | 202 | 13.0 | 23.0 | 0.00 | 0.00 | 0.00 | 87 | 1006.9 |
| 20260506204306 | 60 | 204 | 12.0 | 21.0 | 0.00 | 0.00 | 0.00 | 87 | 1006.8 |
| 20260506203806 | 60 | 195 | 12.0 | 18.0 | 0.00 | 0.00 | 0.00 | 86 | 1006.8 |
| 20260506203306 | 60 | 197 | 15.0 | 23.0 | 0.00 | 0.00 | 0.00 | 86 | 1006.8 |
| 20260506202306 | 61 | 213 | 11.0 | 24.0 | 0.00 | 0.00 | 0.00 | 86 | 1006.9 |
| 20260506201306 | 60 | 186 | 9.0 | 17.0 | 0.00 | 0.00 | 0.00 | 87 | 1006.9 |
| 20260506200806 | 60 | 181 | 9.0 | 18.0 | 0.00 | 0.00 | 0.00 | 85 | 1007.0 |
| 20260506195306 | 62 | 216 | 10.0 | 17.0 | 0.00 | 0.00 | 0.00 | 86 | 1007.4 |
| 20260506194807 | 62 | 215 | 10.0 | 17.0 | 0.00 | 0.00 | 0.00 | 86 | 1007.5 |
| 20260506194306 | 61 | 210 | 9.0 | 15.0 | 0.00 | 0.00 | 0.00 | 87 | 1007.5 |
| 20260506193807 | 60 | 223 | 10.0 | 16.0 | 0.00 | 0.00 | 0.00 | 88 | 1007.5 |
| 20260506192306 | 59 | 206 | 11.0 | 22.0 | 0.00 | 0.00 | 0.00 | 89 | 1007.5 |
| 20260506191806 | 59 | 205 | 12.0 | 20.0 | 0.00 | 0.00 | 0.00 | 90 | 1007.5 |
| 20260506191306 | 59 | 202 | 12.0 | 20.0 | 0.00 | 0.00 | 0.00 | 90 | 1007.6 |
| 20260506184805 | 59 | 214 | 9.0 | 16.0 | 0.00 | 0.00 | 0.00 | 91 | 1008.0 |
| 20260506182805 | 58 | 210 | 13.0 | 21.0 | 0.00 | 0.00 | 0.00 | 90 | 1008.2 |
| 20260506182307 | 58 | 201 | 12.0 | 20.0 | 0.00 | 0.00 | 0.00 | 89 | 1008.2 |
| 20260506175806 | 58 | 204 | 14.0 | 22.0 | 0.00 | 0.00 | 0.00 | 89 | 1008.4 |
| 20260506175306 | 58 | 218 | 14.0 | 21.0 | 0.00 | 0.00 | 0.00 | 89 | 1008.6 |
| 20260506174805 | 58 | 191 | 12.0 | 24.0 | 0.00 | 0.00 | 0.00 | 89 | 1008.8 |
| 20260506174305 | 58 | 203 | 14.0 | 25.0 | 0.00 | 0.00 | 0.00 | 89 | 1008.8 |
| 20260506172307 | 59 | 202 | 14.0 | 22.0 | 0.00 | 0.00 | 0.00 | 86 | 1008.8 |
| 20260506170806 | 59 | 205 | 10.0 | 25.0 | 0.00 | 0.00 | 0.00 | 87 | 1009.0 |
| 20260506170305 | 58 | 199 | 13.0 | 22.0 | 0.00 | 0.00 | 0.00 | 88 | 1009.1 |
| 20260506165306 | 58 | 195 | 14.0 | 20.0 | 0.00 | 0.00 | 0.00 | 87 | 1009.4 |
| 20260506164305 | 59 | 199 | 13.0 | 23.0 | 0.00 | 0.00 | 0.00 | 87 | 1009.6 |
| 20260506163306 | 59 | 193 | 14.0 | 22.0 | 0.00 | 0.00 | 0.00 | 88 | 1009.7 |
| 20260506162307 | 58 | 209 | 11.0 | 22.0 | 0.00 | 0.00 | 0.00 | 89 | 1009.9 |
| 20260506155805 | 57 | 201 | 13.0 | 20.0 | 0.00 | 0.00 | 0.00 | 89 | 1010.3 |
| 20260506154807 | 57 | 196 | 10.0 | 18.0 | 0.00 | 0.00 | 0.00 | 88 | 1010.1 |
| 20260506154306 | 57 | 198 | 8.0 | 16.0 | 0.00 | 0.00 | 0.00 | 88 | 1010.3 |
| 20260506153805 | 57 | 200 | 12.0 | 22.0 | 0.00 | 0.00 | 0.00 | 88 | 1010.3 |
| 20260506152806 | 58 | 202 | 10.0 | 22.0 | 0.00 | 0.00 | 0.00 | 87 | 1010.3 |
| 20260506152306 | 58 | 203 | 12.0 | 21.0 | 0.00 | 0.00 | 0.00 | 87 | 1010.3 |
| 20260506151806 | 58 | 205 | 12.0 | 22.0 | 0.00 | 0.00 | 0.00 | 88 | 1010.4 |
| 20260506145306 | 58 | 197 | 13.0 | 23.0 | 0.00 | 0.00 | 0.00 | 86 | 1010.6 |
| 20260506144805 | 59 | 199 | 12.0 | 22.0 | 0.00 | 0.00 | 0.00 | 85 | 1010.5 |
| 20260506142306 | 58 | 211 | 12.0 | 21.0 | 0.00 | 0.00 | 0.00 | 87 | 1010.7 |
| 20260506141805 | 58 | 210 | 12.0 | 17.0 | 0.00 | 0.00 | 0.00 | 87 | 1010.6 |
| 20260506141305 | 58 | 193 | 12.0 | 20.0 | 0.00 | 0.00 | 0.00 | 87 | 1010.5 |
| 20260506140805 | 58 | 191 | 12.0 | 22.0 | 0.00 | 0.00 | 0.00 | 87 | 1010.5 |
| 20260506135806 | 59 | 189 | 13.0 | 21.0 | 0.00 | 0.00 | 0.00 | 86 | 1010.5 |
| 20260506134805 | 59 | 212 | 13.0 | 23.0 | 0.00 | 0.00 | 0.00 | 86 | 1010.6 |
| 20260506134306 | 59 | 212 | 13.0 | 22.0 | 0.00 | 0.00 | 0.00 | 86 | 1010.8 |
| 20260506133805 | 59 | 190 | 16.0 | 24.0 | 0.00 | 0.00 | 0.00 | 86 | 1010.7 |
| 20260506132307 | 60 | 202 | 16.0 | 26.0 | 0.00 | 0.00 | 0.00 | 85 | 1010.9 |
| 20260506130805 | 59 | 202 | 17.0 | 29.0 | 0.00 | 0.00 | 0.00 | 86 | 1010.8 |
| 20260506125306 | 60 | 203 | 13.0 | 25.0 | 0.00 | 0.00 | 0.00 | 86 | 1010.9 |
| 20260506124305 | 60 | 214 | 13.0 | 24.0 | 0.00 | 0.00 | 0.00 | 87 | 1010.8 |
| 20260506123805 | 59 | 187 | 12.0 | 22.0 | 0.00 | 0.00 | 0.00 | 86 | 1010.7 |
| 20260506123306 | 60 | 206 | 14.0 | 20.0 | 0.00 | 0.00 | 0.00 | 86 | 1010.7 |
| 20260506122306 | 59 | 194 | 13.0 | 24.0 | 0.00 | 0.00 | 0.00 | 88 | 1010.8 |
| 20260506121805 | 59 | 205 | 14.0 | 25.0 | 0.00 | 0.00 | 0.00 | 88 | 1010.7 |
| 20260506120807 | 59 | 204 | 13.0 | 21.0 | 0.00 | 0.00 | 0.00 | 88 | 1010.6 |
| 20260506120305 | 59 | 217 | 13.0 | 23.0 | 0.00 | 0.00 | 0.00 | 88 | 1010.7 |
| 20260506114805 | 58 | 213 | 13.0 | 28.0 | 0.00 | 0.00 | 0.00 | 89 | 1010.9 |
| 20260506114305 | 58 | 195 | 14.0 | 28.0 | 0.00 | 0.00 | 0.00 | 89 | 1010.9 |
| 20260506113806 | 58 | 211 | 14.0 | 26.0 | 0.00 | 0.00 | 0.00 | 89 | 1010.9 |
| 20260506113306 | 58 | 206 | 12.0 | 22.0 | 0.00 | 0.00 | 0.00 | 90 | 1010.9 |
| 20260506112805 | 58 | 205 | 14.0 | 26.0 | 0.00 | 0.00 | 0.00 | 90 | 1010.9 |
| 20260506112306 | 58 | 208 | 15.0 | 26.0 | 0.00 | 0.00 | 0.00 | 90 | 1010.9 |
| 20260506111805 | 57 | 200 | 12.0 | 25.0 | 0.00 | 0.00 | 0.00 | 91 | 1010.9 |
| 20260506110805 | 57 | 208 | 13.0 | 20.0 | 0.00 | 0.00 | 0.00 | 91 | 1010.8 |
| 20260506110306 | 57 | 208 | 11.0 | 20.0 | 0.00 | 0.00 | 0.00 | 91 | 1010.8 |
| 20260506103305 | 57 | 210 | 12.0 | 21.0 | 0.00 | 0.00 | 0.00 | 92 | 1010.7 |
| 20260506102805 | 57 | 210 | 12.0 | 26.0 | 0.00 | 0.00 | 0.00 | 92 | 1010.7 |
| 20260506102306 | 57 | 214 | 14.0 | 22.0 | 0.00 | 0.00 | 0.00 | 92 | 1010.8 |
| 20260506101805 | 56 | 204 | 13.0 | 20.0 | 0.00 | 0.00 | 0.00 | 92 | 1010.6 |
| 20260506100805 | 56 | 201 | 13.0 | 20.0 | 0.00 | 0.00 | 0.00 | 93 | 1010.6 |
| 20260506094805 | 56 | 211 | 12.0 | 20.0 | 0.00 | 0.00 | 0.00 | 93 | 1010.5 |
| 20260506093305 | 56 | 209 | 12.0 | 20.0 | 0.00 | 0.00 | 0.00 | 92 | 1010.6 |
| 20260506092805 | 56 | 203 | 14.0 | 20.0 | 0.00 | 0.00 | 0.00 | 92 | 1010.7 |
| 20260506091806 | 56 | 212 | 13.0 | 21.0 | 0.00 | 0.00 | 0.00 | 92 | 1010.8 |
| 20260506090306 | 56 | 201 | 12.0 | 20.0 | 0.00 | 0.00 | 0.00 | 92 | 1010.9 |
| 20260506082305 | 57 | 203 | 14.0 | 21.0 | 0.00 | 0.00 | 0.00 | 91 | 1010.9 |
| 20260506081305 | 57 | 213 | 13.0 | 21.0 | 0.00 | 0.00 | 0.00 | 91 | 1011.0 |
| 20260506080805 | 56 | 209 | 11.0 | 20.0 | 0.00 | 0.00 | 0.00 | 91 | 1011.0 |
| 20260506080305 | 57 | 218 | 14.0 | 21.0 | 0.00 | 0.00 | 0.00 | 91 | 1011.0 |
| 20260506073305 | 58 | 213 | 16.0 | 30.0 | 0.00 | 0.00 | 0.00 | 89 | 1011.2 |
| 20260506072805 | 58 | 207 | 16.0 | 26.0 | 0.00 | 0.00 | 0.00 | 89 | 1011.3 |
| 20260506070806 | 58 | 204 | 15.0 | 21.0 | 0.00 | 0.00 | 0.00 | 89 | 1011.2 |
| 20260506070306 | 58 | 211 | 15.0 | 26.0 | 0.00 | 0.00 | 0.00 | 89 | 1011.3 |
| 20260506061306 | 59 | 204 | 17.0 | 25.0 | 0.00 | 0.00 | 0.00 | 86 | 1011.2 |
| 20260506060805 | 59 | 213 | 15.0 | 23.0 | 0.00 | 0.00 | 0.00 | 86 | 1011.2 |
| 20260506060306 | 59 | 207 | 13.0 | 20.0 | 0.00 | 0.00 | 0.00 | 86 | 1011.2 |
| 20260506050305 | 58 | 209 | 15.0 | 24.0 | 0.00 | 0.00 | 0.00 | 86 | 1011.8 |
| 20260506044305 | 58 | 215 | 14.0 | 21.0 | 0.00 | 0.00 | 0.00 | 87 | 1011.7 |
| 20260506042305 | 57 | 204 | 13.0 | 22.0 | 0.00 | 0.00 | 0.00 | 87 | 1011.8 |
| 20260506040839 | 57 | 212 | 14.0 | 26.0 | 0.00 | 0.00 | 0.00 | 87 | 1011.8 |
| 20260506035808 | 57 | 212 | 12.0 | 20.0 | 0.00 | 0.00 | 0.00 | 87 | 1011.8 |
| 20260506035306 | 57 | 202 | 12.0 | 23.0 | 0.00 | 0.00 | 0.00 | 87 | 1011.9 |
| 20260506034806 | 57 | 224 | 10.0 | 20.0 | 0.00 | 0.00 | 0.00 | 87 | 1011.9 |
| 20260506034305 | 57 | 206 | 12.0 | 20.0 | 0.00 | 0.00 | 0.00 | 87 | 1011.9 |
| 20260506033805 | 57 | 203 | 11.0 | 20.0 | 0.00 | 0.00 | 0.00 | 86 | 1011.9 |
| 20260506033306 | 57 | 209 | 10.0 | 18.0 | 0.00 | 0.00 | 0.00 | 86 | 1011.9 |
| 20260506032804 | 57 | 212 | 12.0 | 22.0 | 0.00 | 0.00 | 0.00 | 86 | 1011.9 |
| 20260506030805 | 57 | 215 | 14.0 | 21.0 | 0.00 | 0.00 | 0.00 | 85 | 1012.0 |
| 20260506030307 | 58 | 201 | 14.0 | 23.0 | 0.00 | 0.00 | 0.00 | 85 | 1012.0 |
| 20260506024305 | 59 | 211 | 17.0 | 26.0 | 0.00 | 0.00 | 0.00 | 84 | 1012.0 |
| 20260506023305 | 59 | 205 | 13.0 | 25.0 | 0.00 | 0.00 | 0.00 | 83 | 1012.1 |
| 20260506021805 | 59 | 214 | 16.0 | 26.0 | 0.00 | 0.00 | 0.00 | 82 | 1012.1 |
| 20260506021305 | 59 | 202 | 16.0 | 25.0 | 0.00 | 0.00 | 0.00 | 82 | 1012.1 |
| 20260506020805 | 59 | 199 | 17.0 | 25.0 | 0.00 | 0.00 | 0.00 | 83 | 1012.1 |
| 20260506020305 | 59 | 215 | 14.0 | 24.0 | 0.00 | 0.00 | 0.00 | 83 | 1012.0 |
| 20260506015306 | 59 | 205 | 15.0 | 26.0 | 0.00 | 0.00 | 0.00 | 82 | 1011.9 |
| 20260506014807 | 59 | 206 | 16.0 | 24.0 | 0.00 | 0.00 | 0.00 | 82 | 1012.0 |
| 20260506014305 | 59 | 230 | 13.0 | 21.0 | 0.00 | 0.00 | 0.00 | 83 | 1012.0 |
| 20260506013806 | 59 | 200 | 13.0 | 23.0 | 0.00 | 0.00 | 0.00 | 83 | 1011.9 |
| 20260506013305 | 59 | 221 | 12.0 | 20.0 | 0.00 | 0.00 | 0.00 | 83 | 1011.9 |
| 20260506012307 | 59 | 216 | 13.0 | 21.0 | 0.00 | 0.00 | 0.00 | 83 | 1011.9 |
| 20260506011305 | 59 | 206 | 17.0 | 25.0 | 0.00 | 0.00 | 0.00 | 84 | 1011.8 |
| 20260506010805 | 59 | 210 | 13.0 | 23.0 | 0.00 | 0.00 | 0.00 | 83 | 1011.7 |
| 20260506005805 | 59 | 217 | 12.0 | 21.0 | 0.00 | 0.00 | 0.00 | 83 | 1011.5 |
| 20260506004305 | 59 | 197 | 16.0 | 23.0 | 0.00 | 0.00 | 0.00 | 82 | 1011.4 |
| 20260506003804 | 60 | 204 | 14.0 | 29.0 | 0.00 | 0.00 | 0.00 | 82 | 1011.4 |
| 20260506003305 | 59 | 206 | 16.0 | 26.0 | 0.00 | 0.00 | 0.00 | 82 | 1011.5 |
| 20260506002805 | 59 | 200 | 16.0 | 24.0 | 0.00 | 0.00 | 0.00 | 82 | 1011.5 |
| 20260506001304 | 59 | 186 | 16.0 | 21.0 | 0.00 | 0.00 | 0.00 | 82 | 1011.2 |
| 20260506000804 | 59 | 211 | 13.0 | 25.0 | 0.00 | 0.00 | 0.00 | 81 | 1011.3 |
| 20260505235305 | 59 | 216 | 13.0 | 25.0 | 0.00 | 0.00 | 0.00 | 81 | 1011.1 |
| 20260505234305 | 60 | 228 | 13.0 | 23.0 | 0.00 | 0.00 | 0.00 | 79 | 1011.1 |
| 20260505233805 | 60 | 194 | 16.0 | 32.0 | 0.00 | 0.00 | 0.00 | 79 | 1011.1 |
| 20260505231804 | 61 | 208 | 13.0 | 22.0 | 0.00 | 0.00 | 0.00 | 76 | 1011.0 |